This is the latest recevied weather packets stored in our database for station/object KI4NG. If no packets are shown the sender has not sent any weather packets the latest 10 day(s).
| Time | Temp. | Humidity | Pressure | Rain* | Wind** | Luminosity | Snow |
|---|---|---|---|---|---|---|---|
| 1778031685 | 19.44° C | 53% | 1011.7 hPa | 0 mm | - | 0 W/m² | - |
| 1778031383 | 19.44° C | 53% | 1011.9 hPa | 0 mm | - | 0 W/m² | - |
| 1778031080 | 19.44° C | 52% | 1011.8 hPa | 0 mm | - | 0 W/m² | - |
| 1778030776 | 19.44° C | 51% | 1012 hPa | 0 mm | - | 0 W/m² | - |
| 1778030472 | 19.44° C | 51% | 1011.8 hPa | 0 mm | - | 0 W/m² | - |
| 1778030170 | 19.44° C | 51% | 1011.8 hPa | 0 mm | - | 0 W/m² | - |
| 1778029866 | 19.44° C | 50% | 1011.6 hPa | 0 mm | - | 0 W/m² | - |
| 1778029560 | 20° C | 50% | 1011.4 hPa | 0 mm | - | 0 W/m² | - |
| 1778029256 | 19.44° C | 50% | 1011.4 hPa | 0 mm | - | 0 W/m² | - |
| 1778028954 | 20° C | 49% | 1010.9 hPa | 0 mm | - | 0 W/m² | - |
| 1778028650 | 20° C | 49% | 1010.9 hPa | 0 mm | - | 0 W/m² | - |
| 1778028347 | 20° C | 48% | 1010.8 hPa | 0 mm | - | 0 W/m² | - |
| 1778028044 | 20° C | 51% | 1010.8 hPa | 0 mm | - | 0 W/m² | - |
| 1778027740 | 20° C | 52% | 1010.8 hPa | 0 mm | - | 0 W/m² | - |
| 1778027437 | 20° C | 54% | 1010.8 hPa | 0 mm | - | 0 W/m² | - |
| 1778027132 | 20° C | 55% | 1010.7 hPa | 0 mm | - | 2 W/m² | - |
| 1778026828 | 20° C | 55% | 1010.4 hPa | 0 mm | - | 3 W/m² | - |
| 1778026525 | 20° C | 55% | 1010.6 hPa | 0 mm | - | 7 W/m² | - |
| 1778026222 | 20° C | 56% | 1010.5 hPa | 0 mm | - | 12 W/m² | - |
| 1778025920 | 20.56° C | 55% | 1010.1 hPa | 0 mm | - | 13 W/m² | - |
| 1778025617 | 20.56° C | 55% | 1010.1 hPa | 0 mm | - | 14 W/m² | - |
| 1778025315 | 20.56° C | 56% | 1010.4 hPa | 0 mm | - | 23 W/m² | - |
| 1778025011 | 20.56° C | 58% | 1010.6 hPa | 0 mm | - | 29 W/m² | - |
| 1778024708 | 20.56° C | 59% | 1010.6 hPa | 0 mm | - | 24 W/m² | - |
| 1778024405 | 20.56° C | 57% | 1010.6 hPa | 0 mm | - | 18 W/m² | - |
* Rain latest hour (hover to see other rain measurements)
** Current wind speed in m/s (hover to see current wind gust speed)